1491346800.0,38545,14.5,73788.3,-2.29,-3.83,-3.83,0,*56
1491346801.21,38546,14.5,73788.0,-2.27,-3.83,-3.79,0,*5E
1491346802.42,38547,14.5,73786.0,-2.27,-3.79,-3.75,0,*56
1491346803.62,38548,14.5,73788.5,-2.27,-3.79,-3.79,0,*55
1491346804.86,38549,14.5,73786.3,-2.29,-3.83,-3.83,0,*5A
1491346806.08,38550,14.5,73788.8,-2.29,-3.79,-3.83,0,*57
1491346807.31,38551,14.5,73786.0,-2.27,-3.71,-3.79,0,*55
1491346808.53,38552,14.5,73786.8,-2.27,-3.67,-3.75,0,*5D
1491346809.77,38553,14.5,73788.5,-2.29,-3.79,-3.79,0,*51
1491346811.01,38554,14.5,73784.8,-2.27,-3.67,-3.67,0,*58
1491346812.25,38555,14.56,73788.0,-2.27,-3.67,-3.63,0,*5D
1491346813.49,38556,14.5,73788.0,-2.27,-3.67,-3.63,0,*5E
1491346814.76,38557,14.5,73788.3,-2.29,-3.59,-3.67,0,*58
1491346816.03,38558,14.5,73788.5,-2.29,-3.67,-3.59,0,*57
1491346817.27,38559,14.5,73788.3,-2.27,-3.63,-3.67,0,*51
1491346818.52,38560,14.5,73790.3,-2.29,-3.71,-3.79,0,*59
1491346819.79,38561,14.5,73788.0,-2.29,-3.71,-3.67,0,*57
1491346821.04,38562,14.5,73788.0,-2.29,-3.71,-3.79,0,*5B
1491346822.28,38563,14.5,73786.8,-2.29,-3.71,-3.79,0,*5A
1491346823.53,38564,14.5,73784.0,-2.27,-3.67,-3.67,0,*5B
1491346824.79,38565,14.5,73788.0,-2.29,-3.67,-3.71,0,*53
1491346826.03,38566,14.5,73790.3,-2.27,-3.55,-3.63,0,*5C
1491346827.28,38567,14.56,73790.3,-2.27,-3.63,-3.63,0,*58
1491346828.52,38568,14.5,73790.5,-2.27,-3.63,-3.63,0,*57
1491346829.76,38569,14.5,73784.0,-2.27,-3.63,-3.55,0,*53
1491346831.03,38570,14.5,73786.0,-2.29,-3.67,-3.59,0,*5D
1491346832.28,38571,14.5,73788.0,-2.27,-3.55,-3.55,0,*5F
1491346833.55,38572,14.5,73786.5,-2.29,-3.55,-3.59,0,*5E
1491346834.82,38573,14.5,73790.8,-2.29,-3.55,-3.59,0,*5F
1491346836.08,38574,14.5,73784.5,-2.29,-3.59,-3.55,0,*58
1491346837.33,38575,14.5,73788.5,-2.27,-3.63,-3.55,0,*5E
1491346838.57,38576,14.5,73786.3,-2.27,-3.55,-3.63,0,*5D
1491346839.81,38577,14.5,73790.0,-2.27,-3.55,-3.55,0,*59
1491346841.07,38578,14.5,73784.5,-2.29,-3.67,-3.67,0,*58
1491346842.32,38579,14.56,73788.0,-2.27,-3.71,-3.63,0,*54
1491346843.58,38580,14.5,73786.0,-2.29,-3.71,-3.67,0,*58
1491346844.82,38581,14.5,73786.5,-2.23,-3.59,-3.63,0,*5D
1491346846.09,38582,14.5,73788.0,-2.29,-3.67,-3.67,0,*5D
1491346847.36,38583,14.5,73790.5,-2.29,-3.67,-3.63,0,*58
1491346848.6,38584,14.56,73792.8,-2.27,-3.63,-3.55,0,*50
1491346849.84,38585,14.56,73792.0,-2.23,-3.67,-3.63,0,*54
1491346851.08,38586,14.5,73784.3,-2.27,-3.67,-3.67,0,*57
1491346852.35,38587,14.56,73788.8,-2.29,-3.71,-3.71,0,*58
1491346853.61,38588,14.5,73790.5,-2.29,-3.71,-3.67,0,*50
1491346854.84,38589,14.5,73788.3,-2.27,-3.67,-3.75,0,*5B
1491346856.08,38590,14.56,73788.8,-2.27,-3.67,-3.67,0,*50
1491346857.32,38591,14.5,73788.3,-2.27,-3.63,-3.63,0,*51
1491346858.56,38592,14.5,73788.5,-2.27,-3.67,-3.67,0,*52
1491346859.8,38593,14.5,73788.3,-2.29,-3.79,-3.79,0,*5D
1491346861.02,38594,14.5,73788.3,-2.27,-3.67,-3.75,0,*57
1491346862.23,38595,14.5,73790.5,-2.27,-3.75,-3.75,0,*55
1491346863.44,38596,14.5,73788.3,-2.27,-3.79,-3.75,0,*5A
1491346864.65,38597,14.5,73784.3,-2.27,-3.83,-3.91,0,*54
1491346865.85,38598,14.5,73790.8,-2.27,-3.87,-3.79,0,*59
1491346867.05,38599,14.5,73788.8,-2.27,-3.87,-3.79,0,*58
1491346868.26,38600,14.5,73792.0,-2.27,-3.79,-3.79,0,*5A
1491346869.49,38601,14.5,73790.8,-2.29,-3.91,-3.83,0,*56
1491346870.72,38602,14.5,73788.3,-2.29,-3.83,-3.91,0,*55
1491346871.96,38603,14.5,73788.0,-2.29,-3.83,-3.91,0,*54
1491346873.16,38604,14.5,73786.3,-2.27,-3.87,-3.91,0,*59
1491346874.39,38605,14.5,73790.3,-2.29,-3.91,-3.91,0,*51
1491346875.62,38606,14.5,73786.3,-2.29,-3.95,-3.91,0,*56
1491346876.88,38607,14.5,73788.3,-2.29,-4.01,-3.95,0,*59
1491346878.08,38608,14.56,73788.8,-2.27,-3.95,-3.95,0,*52
1491346879.3,38609,14.5,73788.0,-2.29,-4.09,-4.09,0,*5D
1491346880.56,38610,14.5,73786.0,-2.29,-4.01,-4.09,0,*5D
1491346881.79,38611,14.5,73786.5,-2.29,-3.95,-4.13,0,*5D
1491346883.01,38612,14.5,73784.5,-2.29,-3.95,-3.95,0,*57
1491346884.24,38613,14.5,73784.5,-2.29,-3.91,-3.95,0,*52
1491346885.47,38614,14.5,73784.3,-2.29,-3.91,-3.95,0,*55
1491346886.7,38615,14.56,73790.3,-2.29,-3.95,-3.95,0,*50
1491346887.93,38616,14.5,73786.5,-2.29,-3.95,-3.95,0,*53
1491346889.21,38617,14.5,73790.3,-2.29,-4.01,-4.01,0,*52
1491346890.43,38618,14.5,73788.3,-2.29,-4.13,-4.13,0,*5D
1491346891.67,38619,14.5,73790.8,-2.29,-4.21,-4.25,0,*58
1491346892.87,38620,14.5,73784.0,-2.27,-4.17,-4.21,0,*5D
1491346894.1,38621,14.5,73786.0,-2.29,-4.21,-4.25,0,*53
1491346895.3,38622,14.5,73784.8,-2.27,-4.09,-4.17,0,*55
1491346896.53,38623,14.5,73782.8,-2.29,-4.21,-4.13,0,*54
1491346897.76,38624,14.5,73780.5,-2.29,-4.13,-4.21,0,*53
1491346898.96,38625,14.5,73788.5,-2.27,-4.09,-4.21,0,*57
1491346900.19,38626,14.5,73786.5,-2.29,-4.13,-4.25,0,*55
1491346901.42,38627,14.5,73786.0,-2.29,-4.21,-4.25,0,*55
1491346902.65,38628,14.5,73786.5,-2.29,-4.21,-4.25,0,*5A
1491346903.88,38629,14.5,73790.3,-2.29,-4.25,-4.25,0,*5F
1491346905.11,38630,14.5,73788.8,-2.29,-4.25,-4.33,0,*50
1491346906.31,38631,14.5,73790.5,-2.31,-4.33,-4.33,0,*5F
1491346907.52,38632,14.5,73788.8,-2.31,-4.33,-4.33,0,*5C
1491346908.73,38633,14.5,73784.5,-2.31,-4.33,-4.37,0,*59
1491346909.93,38634,14.5,73790.3,-2.31,-4.33,-4.37,0,*5E
1491346911.14,38635,14.5,73784.3,-2.31,-4.25,-4.37,0,*58
1491346912.35,38636,14.5,73788.8,-2.31,-4.25,-4.37,0,*5B
1491346913.56,38637,14.5,73790.3,-2.31,-4.25,-4.37,0,*5A
1491346914.77,38638,14.56,73790.3,-2.31,-4.21,-4.37,0,*51
1491346915.98,38639,14.5,73786.5,-2.31,-4.25,-4.25,0,*57
1491346917.19,38640,14.5,73794.8,-2.31,-4.25,-4.37,0,*5A
1491346918.4,38641,14.5,73790.0,-2.31,-4.33,-4.37,0,*5C
1491346919.59,38642,14.5,73786.8,-2.31,-4.37,-4.45,0,*5E
1491346920.79,38643,14.5,73786.0,-2.31,-4.45,-4.57,0,*59
1491346922.01,38644,14.5,73784.3,-2.33,-4.53,-4.49,0,*54
1491346923.24,38645,14.5,73788.0,-2.33,-4.49,-4.53,0,*55
1491346924.44,38646,14.5,73786.5,-2.31,-4.45,-4.57,0,*5C
1491346925.64,38647,14.5,73786.0,-2.31,-4.49,-4.57,0,*51
1491346926.84,38648,14.5,73786.5,-2.31,-4.57,-4.61,0,*54
1491346928.07,38649,14.5,73786.0,-2.33,-4.61,-4.65,0,*56
1491346929.3,38650,14.5,73786.5,-2.33,-4.61,-4.65,0,*5E
1491346930.55,38651,14.5,73786.0,-2.33,-4.61,-4.73,0,*58
1491346931.8,38652,14.5,73790.5,-2.33,-4.61,-4.73,0,*5B
1491346933.05,38653,14.5,73786.0,-2.33,-4.61,-4.73,0,*5A
1491346934.29,38654,14.5,73786.5,-2.33,-4.53,-4.73,0,*5C
1491346935.51,38655,14.5,73788.8,-2.35,-4.53,-4.73,0,*5B
1491346936.76,38656,14.5,73788.0,-2.33,-4.53,-4.73,0,*5E
1491346938.01,38657,14.5,73786.0,-2.33,-4.61,-4.73,0,*5E
1491346939.26,38658,14.5,73784.0,-2.33,-4.61,-4.73,0,*51
1491346940.51,38659,14.5,73788.3,-2.33,-4.65,-4.73,0,*54
1491346941.75,38660,14.5,73790.0,-2.35,-4.69,-4.81,0,*59
1491346943.0,38661,14.5,73790.3,-2.35,-4.73,-4.81,0,*53
1491346944.27,38662,14.5,73786.3,-2.33,-4.77,-4.89,0,*5A
1491346945.51,38663,14.5,73786.5,-2.35,-4.73,-4.93,0,*52
1491346946.76,38664,14.5,73786.5,-2.35,-4.73,-4.93,0,*55
1491346948.03,38665,14.5,73790.0,-2.37,-4.81,-4.85,0,*5C
1491346949.28,38666,14.5,73786.3,-2.35,-4.77,-4.81,0,*50
1491346950.55,38667,14.5,73788.0,-2.37,-4.81,-4.93,0,*59
1491346951.79,38668,14.5,73788.3,-2.35,-4.81,-4.93,0,*54
1491346953.07,38669,14.5,73784.8,-2.37,-4.81,-5.07,0,*5B
1491346954.31,38670,14.5,73786.3,-2.37,-4.77,-4.99,0,*5C
1491346955.55,38671,14.5,73786.5,-2.35,-4.77,-4.93,0,*55
1491346956.79,38672,14.5,73788.8,-2.37,-4.77,-4.99,0,*5E
1491346958.06,38673,14.5,73784.3,-2.37,-4.77,-5.07,0,*59
1491346959.31,38674,14.5,73788.3,-2.39,-4.85,-5.11,0,*5A
1491346960.53,38675,14.5,73784.8,-2.39,-4.85,-4.99,0,*5A
1491346961.78,38676,14.5,73788.0,-2.39,-4.85,-5.11,0,*58
1491346963.02,38677,14.5,73790.3,-2.37,-4.81,-4.99,0,*52
1491346964.28,38678,14.5,73784.8,-2.39,-4.81,-5.03,0,*51
1491346965.52,38679,14.5,73792.5,-2.41,-4.85,-4.99,0,*59
1491346966.77,38680,14.5,73790.8,-2.39,-4.81,-5.03,0,*56
1491346968.02,38681,14.5,73792.0,-2.39,-4.81,-4.89,0,*54
1491346969.27,38682,14.5,73786.0,-2.39,-4.85,-5.11,0,*53
1491346970.52,38683,14.5,73788.3,-2.39,-4.85,-5.03,0,*51
1491346971.8,38684,14.5,73790.0,-2.41,-4.89,-5.11,0,*56
1491346973.05,38685,14.5,73784.8,-2.39,-4.85,-5.11,0,*54
1491346974.32,38686,14.5,73786.5,-2.41,-4.81,-5.03,0,*5F
1491346975.59,38687,14.5,73784.5,-2.41,-4.81,-4.89,0,*5D
1491346976.83,38688,14.5,73788.0,-2.41,-4.81,-4.99,0,*53
1491346978.09,38689,14.5,73784.5,-2.39,-4.81,-5.03,0,*5F
1491346979.33,38690,14.5,73786.5,-2.41,-4.81,-4.99,0,*5A
1491346980.6,38691,14.5,73786.8,-2.41,-4.81,-4.89,0,*5A
1491346981.87,38692,14.5,73784.8,-2.41,-4.81,-4.89,0,*59
1491346983.14,38693,14.5,73784.3,-2.41,-4.81,-4.89,0,*58
1491346984.41,38694,14.5,73786.8,-2.41,-4.81,-4.89,0,*5F
1491346985.65,38695,14.5,73788.5,-2.41,-4.81,-4.99,0,*5F
1491346986.87,38696,14.5,73788.0,-2.39,-4.85,-4.99,0,*57
1491346988.09,38697,14.5,73786.5,-2.39,-4.85,-4.99,0,*56
1491346989.36,38698,14.5,73784.5,-2.41,-4.81,-4.89,0,*53
1491346990.63,38699,14.5,73786.0,-2.41,-4.85,-5.03,0,*55
1491346991.89,38700,14.5,73784.3,-2.43,-4.89,-5.15,0,*5D
1491346993.14,38701,14.5,73788.5,-2.43,-4.89,-5.07,0,*5F
1491346994.39,38702,14.5,73786.5,-2.43,-4.85,-5.15,0,*53
1491346995.64,38703,14.5,73786.5,-2.43,-4.89,-5.15,0,*5E
1491346996.89,38704,14.5,73786.8,-2.43,-4.85,-5.07,0,*56
1491346998.14,38705,14.5,73786.3,-2.43,-4.85,-5.07,0,*57
1491346999.39,38706,14.5,73790.3,-2.43,-4.89,-5.15,0,*5B
1491347000.64,38707,14.5,73784.3,-2.45,-4.89,-5.07,0,*5F
1491347001.89,38708,14.5,73786.3,-2.43,-4.85,-5.15,0,*59
1491347003.13,38709,14.5,73788.3,-2.43,-4.85,-5.15,0,*58
1491347004.38,38710,14.5,73790.5,-2.43,-4.85,-5.07,0,*53
1491347005.63,38711,14.5,73786.0,-2.43,-4.85,-5.07,0,*52
1491347006.88,38712,14.5,73788.5,-2.45,-4.85,-5.07,0,*57
1491347008.13,38713,14.5,73786.0,-2.45,-4.89,-5.07,0,*5A
1491347009.37,38714,14.5,73784.3,-2.43,-4.85,-4.93,0,*5B
1491347010.61,38715,14.5,73788.3,-2.45,-4.85,-5.03,0,*54
1491347011.86,38716,14.5,73788.8,-2.43,-4.85,-5.03,0,*51
1491347013.11,38717,14.5,73790.0,-2.43,-4.85,-5.03,0,*50
1491347014.36,38718,14.5,73788.0,-2.45,-4.85,-5.03,0,*59
1491347015.6,38719,14.56,73790.5,-2.45,-4.85,-5.07,0,*5C
1491347016.84,38720,14.5,73784.3,-2.45,-4.85,-5.15,0,*55
1491347018.09,38721,14.5,73786.3,-2.45,-4.93,-5.07,0,*50
1491347019.34,38722,14.56,73788.5,-2.45,-4.89,-5.15,0,*5B
1491347020.59,38723,14.56,73790.0,-2.45,-5.03,-5.07,0,*5A
1491347021.84,38724,14.5,73790.5,-2.43,-4.93,-5.19,0,*5C
1491347023.09,38725,14.56,73792.3,-2.45,-5.03,-5.19,0,*53
1491347024.34,38726,14.5,73786.5,-2.45,-5.03,-5.19,0,*50
1491347025.59,38727,14.5,73788.8,-2.43,-4.93,-5.27,0,*52
1491347026.84,38728,14.5,73786.0,-2.45,-5.03,-5.27,0,*53
1491347028.1,38729,14.5,73786.0,-2.45,-5.07,-5.27,0,*56
1491347029.36,38730,14.5,73786.3,-2.43,-5.03,-5.27,0,*5C
1491347030.61,38731,14.5,73788.8,-2.45,-5.03,-5.31,0,*5C
1491347031.83,38732,14.5,73786.3,-2.45,-5.03,-5.39,0,*57
1491347033.07,38733,14.5,73784.5,-2.51,-5.11,-5.35,0,*5C
1491347034.31,38734,14.5,73784.8,-2.51,-5.11,-5.43,0,*5A
1491347035.53,38735,14.5,73784.3,-2.49,-5.11,-5.35,0,*53
1491347036.74,38736,14.5,73790.3,-2.49,-5.11,-5.35,0,*50
1491347037.99,38737,14.5,73786.0,-2.49,-5.07,-5.31,0,*52
1491347039.21,38738,14.5,73788.3,-2.49,-5.07,-5.43,0,*58
1491347040.46,38739,14.5,73784.0,-2.51,-5.07,-5.35,0,*51
1491347041.68,38740,14.5,73788.8,-2.49,-5.07,-5.35,0,*56
1491347042.95,38741,14.5,73784.0,-2.51,-5.07,-5.31,0,*5A
1491347044.21,38742,14.56,73788.0,-2.49,-5.07,-5.23,0,*53
1491347045.48,38743,14.5,73790.8,-2.51,-5.07,-5.31,0,*58
1491347046.7,38744,14.5,73786.3,-2.49,-5.07,-5.43,0,*53
1491347047.98,38745,14.5,73784.3,-2.51,-5.07,-5.31,0,*5E
1491347049.23,38746,14.5,73788.3,-2.51,-5.07,-5.35,0,*59
1491347050.47,38747,14.5,73780.8,-2.51,-5.07,-5.35,0,*58
1491347051.71,38748,14.5,73784.3,-2.49,-5.11,-5.31,0,*5D
1491347052.96,38749,14.5,73784.0,-2.51,-5.11,-5.43,0,*50
1491347054.19,38750,14.5,73788.8,-2.51,-5.11,-5.35,0,*59
1491347055.44,38751,14.5,73784.5,-2.51,-5.11,-5.35,0,*58
1491347056.68,38752,14.5,73790.0,-2.51,-5.19,-5.47,0,*56
1491347057.92,38753,14.5,73786.3,-2.51,-5.11,-5.47,0,*5F
1491347059.17,38754,14.56,73788.8,-2.51,-5.31,-5.55,0,*59
1491347060.4,38755,14.56,73788.5,-2.53,-5.35,-5.61,0,*59
1491347061.62,38756,14.5,73786.3,-2.53,-5.35,-5.65,0,*5E
1491347062.86,38757,14.5,73784.0,-2.51,-5.43,-5.69,0,*50
1491347064.08,38758,14.5,73784.5,-2.53,-5.51,-5.77,0,*51
1491347065.31,38759,14.5,73784.3,-2.53,-5.47,-5.89,0,*56
1491347066.55,38760,14.5,73784.3,-2.53,-5.27,-5.77,0,*5B
1491347067.8,38761,14.5,73784.5,-2.53,-5.27,-5.65,0,*59
1491347069.05,38762,14.5,73784.0,-2.53,-5.15,-5.65,0,*5B
1491347070.27,38763,14.5,73786.5,-2.53,-5.15,-5.51,0,*5D
1491347071.52,38764,14.5,73786.3,-2.55,-5.15,-5.39,0,*52
1491347072.74,38765,14.5,73784.5,-2.53,-5.11,-5.39,0,*51
1491347074.02,38766,14.5,73788.3,-2.55,-5.03,-5.27,0,*58
1491347075.27,38767,14.5,73788.0,-2.53,-5.03,-5.27,0,*5F
1491347076.55,38768,14.5,73784.0,-2.55,-5.15,-5.27,0,*51
1491347077.8,38769,14.56,73792.0,-2.55,-5.23,-5.39,0,*5A
1491347079.05,38770,14.5,73788.0,-2.55,-5.23,-5.47,0,*5B
1491347080.29,38771,14.5,73788.0,-2.55,-5.27,-5.47,0,*5E
1491347081.55,38772,14.5,73786.3,-2.53,-5.23,-5.61,0,*5B
1491347082.83,38773,14.5,73786.5,-2.55,-5.23,-5.61,0,*5C
1491347084.11,38774,14.5,73786.0,-2.55,-5.23,-5.61,0,*5B
1491347085.36,38775,14.5,73786.5,-2.55,-5.23,-5.51,0,*59
1491347086.6,38776,14.5,73788.5,-2.57,-5.23,-5.65,0,*5F
1491347087.85,38777,14.5,73786.5,-2.57,-5.19,-5.65,0,*57
1491347089.07,38778,14.5,73784.3,-2.57,-5.27,-5.55,0,*56
1491347090.29,38779,14.5,73786.3,-2.57,-5.27,-5.51,0,*53
1491347091.51,38780,14.5,73786.3,-2.57,-5.39,-5.65,0,*5D
1491347092.76,38781,14.5,73784.3,-2.57,-5.31,-5.65,0,*54
1491347094.0,38782,14.5,73784.5,-2.59,-5.35,-5.65,0,*5D
1491347095.22,38783,14.5,73786.8,-2.57,-5.39,-5.69,0,*52
1491347096.47,38784,14.5,73788.3,-2.59,-5.47,-5.73,0,*59
1491347097.69,38785,14.56,73790.5,-2.57,-5.55,-5.81,0,*58
1491347098.94,38786,14.5,73784.0,-2.59,-5.69,-5.97,0,*5D
1491347100.14,38787,14.56,73790.8,-2.57,-5.55,-5.97,0,*5D
1491347101.33,38788,14.5,73784.3,-2.57,-5.55,-6.05,0,*5A
1491347102.55,38789,14.5,73782.5,-2.57,-5.65,-6.05,0,*58
1491347103.78,38790,14.5,73786.8,-2.57,-5.73,-6.27,0,*57
1491347105.04,38791,14.5,73784.0,-2.59,-5.81,-6.35,0,*56
1491347106.27,38792,14.5,73786.3,-2.59,-5.73,-6.39,0,*54
1491347107.53,38793,14.5,73784.8,-2.59,-5.81,-6.35,0,*54
1491347108.77,38794,14.5,73786.0,-2.59,-5.73,-6.39,0,*52
1491347110.01,38795,14.5,73786.0,-2.59,-5.81,-6.39,0,*5E
1491347111.26,38796,14.5,73788.0,-2.59,-5.81,-6.47,0,*54
1491347112.51,38797,14.5,73790.5,-2.59,-5.81,-6.35,0,*50
1491347113.76,38798,14.5,73786.3,-2.59,-5.73,-6.35,0,*52
1491347115.03,38799,14.5,73784.3,-2.59,-5.73,-6.27,0,*50
1491347116.24,38800,14.5,73784.5,-2.61,-5.61,-6.09,0,*5B
1491347117.52,38801,14.5,73786.8,-2.63,-5.61,-5.89,0,*53
1491347118.76,38802,14.5,73788.8,-2.63,-5.65,-5.97,0,*5B
1491347119.98,38803,14.5,73788.5,-2.61,-5.61,-5.97,0,*5C
1491347121.22,38804,14.56,73788.5,-2.63,-5.73,-6.01,0,*56
1491347122.46,38805,14.5,73786.5,-2.63,-5.73,-6.13,0,*54
1491347123.7,38806,14.5,73786.8,-2.63,-5.73,-6.05,0,*50
1491347124.97,38807,14.5,73786.8,-2.63,-5.73,-6.19,0,*5C
1491347126.25,38808,14.56,73788.5,-2.63,-5.85,-6.27,0,*57
1491347127.48,38809,14.56,73790.5,-2.61,-5.85,-6.47,0,*52
1491347128.73,38810,14.5,73782.3,-2.63,-5.89,-6.43,0,*50
1491347129.95,38811,14.5,73784.3,-2.63,-6.01,-6.51,0,*51
1491347131.18,38812,14.56,73786.5,-2.63,-6.01,-6.55,0,*56
1491347132.4,38813,14.56,73788.3,-2.63,-6.01,-6.59,0,*5B
1491347133.63,38814,14.5,73786.0,-2.65,-5.97,-6.63,0,*5F
1491347134.88,38815,14.5,73784.0,-2.63,-6.01,-6.63,0,*54
1491347136.1,38816,14.5,73788.8,-2.67,-6.05,-6.73,0,*56
1491347137.28,38817,14.5,73790.3,-2.65,-6.05,-6.69,0,*5E
1491347138.48,38818,14.5,73784.3,-2.65,-6.01,-6.69,0,*55
1491347139.7,38819,14.5,73786.0,-2.67,-6.05,-6.81,0,*54
1491347140.92,38820,14.5,73786.0,-2.67,-6.05,-6.69,0,*58
1491347142.13,38821,14.56,73786.8,-2.67,-6.05,-6.69,0,*59
1491347143.36,38822,14.5,73780.3,-2.67,-6.05,-6.59,0,*59
1491347144.57,38823,14.5,73786.5,-2.67,-6.05,-6.69,0,*5B
1491347145.8,38824,14.5,73784.8,-2.67,-6.09,-6.73,0,*5B
1491347147.02,38825,14.56,73788.8,-2.67,-6.09,-6.69,0,*51
1491347148.24,38826,14.56,73788.0,-2.67,-6.01,-6.59,0,*59
1491347149.46,38827,14.5,73784.5,-2.67,-6.05,-6.69,0,*5F
1491347150.7,38828,14.5,73788.0,-2.69,-6.19,-6.81,0,*55
1491347151.9,38829,14.56,73790.0,-2.69,-6.09,-6.73,0,*58
1491347153.1,38830,14.5,73786.0,-2.69,-6.05,-6.73,0,*5C
1491347154.3,38831,14.56,73790.5,-2.69,-6.05,-6.59,0,*55
1491347155.51,38832,14.56,73790.5,-2.69,-6.01,-6.59,0,*52
1491347156.71,38833,14.5,73786.3,-2.73,-6.01,-6.59,0,*58
1491347157.9,38834,14.5,73786.0,-2.69,-6.05,-6.69,0,*53
1491347159.1,38835,14.5,73784.3,-2.69,-6.09,-6.69,0,*5E
1491347160.31,38836,14.5,73786.0,-2.69,-6.09,-6.85,0,*5F
1491347161.51,38837,14.5,73784.5,-2.69,-6.05,-6.73,0,*5B
1491347162.74,38838,14.56,73786.8,-2.69,-6.19,-6.85,0,*50
1491347163.99,38839,14.5,73786.5,-2.69,-6.19,-6.97,0,*52
1491347165.19,38840,14.5,73782.5,-2.73,-6.13,-6.89,0,*52
1491347166.38,38841,14.5,73784.0,-2.73,-6.13,-6.89,0,*53
1491347167.6,38842,14.5,73784.5,-2.69,-6.09,-6.81,0,*58
1491347168.82,38843,14.5,73784.0,-2.73,-6.23,-6.89,0,*52
1491347170.04,38844,14.5,73790.8,-2.73,-6.23,-6.89,0,*55
1491347171.28,38845,14.5,73788.8,-2.73,-6.27,-6.93,0,*5B
1491347172.49,38846,14.5,73790.0,-2.73,-6.39,-7.05,0,*59
1491347173.74,38847,14.5,73786.8,-2.75,-6.35,-7.05,0,*52
1491347174.97,38848,14.5,73784.8,-2.75,-6.39,-7.19,0,*5C
1491347176.19,38849,14.5,73780.3,-2.77,-6.43,-7.19,0,*52
1491347177.41,38850,14.5,73786.0,-2.77,-6.39,-7.19,0,*57
1491347178.63,38851,14.5,73784.0,-2.77,-6.39,-7.19,0,*56
1491347179.86,38852,14.5,73784.5,-2.75,-6.39,-7.19,0,*57
1491347181.08,38853,14.5,73788.3,-2.77,-6.43,-7.23,0,*50
1491347182.31,38854,14.5,73786.3,-2.77,-6.39,-7.23,0,*5A
1491347183.53,38855,14.5,73784.5,-2.77,-6.39,-7.11,0,*5A
1491347184.75,38856,14.56,73786.5,-2.77,-6.39,-7.11,0,*59
1491347185.99,38857,14.5,73786.3,-2.77,-6.39,-7.05,0,*5D
1491347187.24,38858,14.5,73788.3,-2.77,-6.31,-6.97,0,*50
1491347188.48,38859,14.5,73786.8,-2.79,-6.27,-6.97,0,*58
1491347189.72,38860,14.5,73786.0,-2.79,-6.27,-6.97,0,*52
1491347190.95,38861,14.5,73786.5,-2.81,-6.35,-7.15,0,*5C
1491347192.17,38862,14.5,73788.0,-2.81,-6.43,-7.15,0,*5E
1491347193.39,38863,14.5,73784.8,-2.79,-6.31,-7.05,0,*5C
1491347194.64,38864,14.5,73784.5,-2.79,-6.19,-6.97,0,*5B
1491347195.88,38865,14.5,73784.8,-2.81,-6.31,-6.97,0,*57
1491347197.1,38866,14.5,73784.5,-2.79,-6.31,-6.97,0,*53
1491347198.32,38867,14.5,73790.3,-2.79,-6.31,-7.05,0,*58
1491347199.56,38868,14.5,73786.5,-2.81,-6.31,-7.01,0,*54
1491347200.78,38869,14.5,73788.0,-2.81,-6.47,-7.23,0,*54
1491347202.01,38870,14.56,73792.8,-2.81,-6.43,-7.23,0,*58
1491347203.23,38871,14.5,73784.8,-2.81,-6.43,-7.11,0,*58
1491347204.45,38872,14.5,73782.0,-2.81,-6.43,-7.23,0,*5A
1491347205.67,38873,14.5,73782.3,-2.81,-6.47,-7.23,0,*5F
1491347206.92,38874,14.5,73784.5,-2.81,-6.55,-7.35,0,*5C
1491347208.13,38875,14.5,73786.0,-2.79,-6.51,-7.23,0,*59
1491347209.35,38876,14.5,73786.5,-2.81,-6.35,-7.15,0,*5A
1491347210.57,38877,14.5,73786.5,-2.81,-6.43,-7.15,0,*5A
1491347211.79,38878,14.5,73786.8,-2.85,-6.39,-7.19,0,*50
1491347213.02,38879,14.56,73788.8,-2.83,-6.35,-7.01,0,*52
1491347214.26,38880,14.5,73784.8,-2.85,-6.35,-7.05,0,*56
1491347215.48,38881,14.56,73786.5,-2.83,-6.35,-7.05,0,*51
1491347216.7,38882,14.5,73784.8,-2.83,-6.39,-7.01,0,*5A
1491347217.95,38883,14.5,73784.5,-2.85,-6.35,-7.01,0,*51
1491347219.16,38884,14.5,73784.8,-2.83,-6.39,-7.05,0,*58
1491347220.41,38885,14.5,73786.0,-2.85,-6.35,-7.05,0,*53
1491347221.68,38886,14.5,73784.8,-2.85,-6.27,-6.97,0,*59
1491347222.93,38887,14.5,73782.8,-2.85,-6.35,-7.01,0,*55
1491347224.19,38888,14.5,73784.3,-2.85,-6.27,-7.05,0,*5D
1491347225.44,38889,14.5,73784.5,-2.87,-6.27,-7.01,0,*5A
1491347226.66,38890,14.5,73784.0,-2.87,-6.31,-6.93,0,*5F
1491347227.91,38891,14.5,73782.0,-2.85,-6.27,-6.89,0,*50
1491347229.13,38892,14.5,73780.8,-2.87,-6.39,-7.01,0,*5F
1491347230.35,38893,14.5,73784.3,-2.87,-6.39,-6.93,0,*54
1491347231.62,38894,14.5,73780.5,-2.85,-6.27,-6.97,0,*5A
1491347232.87,38895,14.5,73784.0,-2.89,-6.23,-6.89,0,*5C
1491347234.09,38896,14.5,73784.3,-2.85,-6.09,-6.77,0,*5A
1491347235.35,38897,14.5,73786.3,-2.85,-6.09,-6.63,0,*5E
1491347236.57,38898,14.56,73788.8,-2.85,-5.97,-6.51,0,*54
1491347237.8,38899,14.5,73790.8,-2.87,-6.09,-6.63,0,*52
1491347239.03,38900,14.5,73784.8,-2.87,-6.01,-6.63,0,*5B
1491347240.25,38901,14.5,73782.8,-2.87,-6.09,-6.63,0,*52
1491347241.45,38902,14.5,73784.8,-2.87,-6.13,-6.69,0,*50
1491347242.65,38903,14.5,73786.0,-2.87,-6.13,-6.69,0,*51
1491347243.87,38904,14.5,73786.0,-2.89,-6.09,-6.69,0,*53
1491347245.06,38905,14.5,73784.5,-2.87,-6.13,-6.69,0,*57
1491347246.29,38906,14.5,73782.0,-2.87,-6.27,-6.81,0,*55
1491347247.51,38907,14.5,73786.8,-2.87,-6.27,-6.89,0,*5C
1491347248.71,38908,14.5,73786.8,-2.87,-6.13,-6.81,0,*5C
1491347249.95,38909,14.5,73786.8,-2.89,-6.23,-6.69,0,*56
1491347251.2,38910,14.5,73782.8,-2.89,-6.13,-6.63,0,*57
1491347252.44,38911,14.56,73790.8,-2.89,-6.23,-6.69,0,*5F
1491347253.67,38912,14.5,73790.0,-2.87,-6.13,-6.63,0,*5B
1491347254.92,38913,14.5,73790.3,-2.89,-6.09,-6.63,0,*5F
1491347256.17,38914,14.5,73784.5,-2.89,-6.13,-6.63,0,*53
1491347257.36,38915,14.5,73784.3,-2.87,-6.13,-6.69,0,*56
1491347258.59,38916,14.5,73784.5,-2.89,-6.01,-6.55,0,*57
1491347259.84,38917,14.5,73786.3,-2.89,-6.09,-6.63,0,*5B
1491347261.09,38918,14.5,73786.0,-2.89,-6.13,-6.63,0,*5F
1491347262.3,38919,14.5,73788.8,-2.89,-6.13,-6.69,0,*54
1491347263.55,38920,14.5,73788.0,-2.89,-6.23,-6.77,0,*52
1491347264.78,38921,14.5,73788.5,-2.89,-6.13,-6.81,0,*59
1491347266.02,38922,14.5,73782.3,-2.89,-6.23,-6.69,0,*5F
1491347267.26,38923,14.5,73790.8,-2.89,-6.23,-6.77,0,*51
1491347268.49,38924,14.5,73784.3,-2.87,-6.23,-6.81,0,*51
1491347269.74,38925,14.5,73782.8,-2.89,-6.23,-6.81,0,*5E
1491347270.97,38926,14.5,73782.3,-2.89,-6.13,-6.81,0,*5E
1491347272.22,38927,14.5,73786.5,-2.89,-6.23,-6.89,0,*54
1491347273.43,38928,14.56,73786.5,-2.89,-6.13,-6.69,0,*56
1491347274.68,38929,14.5,73784.5,-2.89,-6.23,-6.81,0,*52
1491347275.91,38930,14.5,73784.8,-2.89,-6.13,-6.81,0,*59
1491347277.14,38931,14.5,73784.5,-2.89,-6.09,-6.77,0,*5A
1491347278.34,38932,14.5,73784.0,-2.91,-6.13,-6.73,0,*5F
1491347279.54,38933,14.5,73786.8,-2.91,-6.13,-6.73,0,*5E
1491347280.77,38934,14.5,73784.5,-2.91,-6.19,-6.73,0,*53
1491347281.98,38935,14.5,73784.3,-2.91,-6.13,-6.81,0,*55
1491347283.2,38936,14.5,73784.5,-2.91,-6.27,-6.85,0,*55
1491347284.45,38937,14.5,73786.8,-2.91,-6.19,-6.93,0,*5E
1491347285.7,38938,14.5,73786.3,-2.91,-6.27,-6.93,0,*5C
1491347286.92,38939,14.5,73784.0,-2.95,-6.31,-6.93,0,*5E
1491347288.12,38940,14.5,73784.5,-2.91,-6.31,-6.85,0,*53
1491347289.37,38941,14.5,73788.5,-2.91,-6.27,-6.93,0,*52
1491347290.59,38942,14.5,73786.0,-2.91,-6.27,-6.85,0,*56
1491347291.82,38943,14.5,73784.3,-2.95,-6.31,-6.93,0,*53
1491347293.05,38944,14.5,73784.5,-2.91,-6.35,-6.93,0,*54
1491347294.25,38945,14.5,73784.8,-2.91,-6.35,-7.15,0,*5A
1491347295.47,38946,14.5,73788.0,-2.95,-6.35,-7.05,0,*5C
1491347296.69,38947,14.5,73784.3,-2.95,-6.43,-7.05,0,*5C
1491347297.9,38948,14.5,73784.8,-2.91,-6.43,-7.11,0,*52
1491347299.1,38949,14.5,73784.0,-2.95,-6.35,-7.15,0,*52
1491347300.33,38950,14.5,73784.0,-2.91,-6.31,-6.97,0,*51
1491347301.55,38951,14.5,73784.3,-2.91,-6.35,-7.05,0,*5E
1491347302.77,38952,14.5,73780.8,-2.95,-6.35,-7.05,0,*59
1491347304.0,38953,14.5,73784.5,-2.95,-6.31,-6.97,0,*56
1491347305.22,38954,14.5,73786.5,-2.95,-6.35,-6.97,0,*55
1491347306.45,38955,14.5,73786.5,-2.95,-6.31,-6.97,0,*50
1491347307.69,38956,14.5,73786.0,-2.95,-6.27,-6.97,0,*54
1491347308.92,38957,14.5,73786.0,-2.95,-6.35,-6.97,0,*56
1491347310.12,38958,14.5,73786.8,-2.95,-6.31,-7.11,0,*52
1491347311.35,38959,14.5,73786.5,-2.95,-6.35,-7.05,0,*52
1491347312.57,38960,14.5,73786.3,-2.95,-6.35,-6.97,0,*52
1491347313.79,38961,14.5,73782.8,-2.95,-6.43,-7.05,0,*58
1491347315.02,38962,14.5,73782.5,-2.97,-6.35,-7.11,0,*5D
1491347316.27,38963,14.5,73782.8,-2.97,-6.35,-7.01,0,*5D
1491347317.5,38964,14.5,73784.5,-2.95,-6.35,-6.97,0,*56
1491347318.7,38965,14.5,73786.5,-2.99,-6.39,-7.11,0,*58